sat.trackr.live / text

‹ back to catalog

STARLINK-2135

NORAD 47408 · 2021-005BM

PAYLOAD ACTIVE UNKNOWN

§ Identity

Operator
Country
US
Launch date
2021-01-20
Launch site
AFETR
Launch vehicle
Mass (kg)
RCS (m²)

Purposes: comms

External: N2YO · Heavens-Above · Gunter

§ Orbital elements

Epoch: 2026-09-09T17:19:03.661824Z

Period
93.88 min
Inclination
53.1572°
Eccentricity
0.0003566
Mean motion
15.33909859 rev/d
Perigee alt
461.7 km
Apogee alt
466.6 km
Semi-major
6,842.3 km
B*
1.0401e-3
RAAN
260.5025°
Arg perigee
52.3122°
Mean anomaly
307.8204°
Rev number
31,158

§ Raw data

STARLINK-21351 47408U 21005BM  26252.72157016  .00034388  00000+0  10401-2 0  99902 47408  53.1572 260.5025 0003566  52.3122 307.8204 15.33909859311587

JSON: /api/v1/satellites/47408 · /tle

For live sub-satellite position, see the globe view (requires WebGL).

§ Visibility from observer

Set your observer location to see the next 7 days of passes ≥ 10°. The values pass through the URL so the page stays shareable.

No JS? Fill the form by hand. The geolocation button needs JavaScript.